EW3333 Weather Reports


Display with metric or nautical units.
time (UTC)temp
F
wind
direction
speed
MPH
gust
MPH
rain 1hr
in
rain 24hr
in
rain mn
in
humidity
%
barometer
mb
20210803143038 68 133 0.0 0.0 0.00 0.00 0.00 72 1010.4
20210803141550 66 133 0.0 0.0 0.00 0.00 0.00 73 1010.3
20210803140135 66 133 0.0 0.0 0.00 0.00 0.00 74 1010.3
20210803134523 65 133 0.0 0.0 0.00 0.00 0.00 72 1010.3
20210803133024 65 133 0.0 0.0 0.00 0.00 0.00 72 1010.2
20210803131523 65 133 0.0 0.0 0.00 0.00 0.00 71 1010.2
20210803130126 66 133 0.0 0.0 0.00 0.00 0.00 70 1010.0
20210803124601 67 133 0.0 0.0 0.00 0.00 0.00 67 1009.9
20210803123032 67 133 0.0 0.0 0.00 0.00 0.00 64 1009.7
20210803121541 66 133 0.0 0.0 0.00 0.00 0.00 65 1009.5
20210803120036 65 133 0.0 0.0 0.00 0.00 0.00 69 1009.4
20210803114527 65 133 0.0 0.0 0.00 0.00 0.00 72 1009.4
20210803113019 66 133 0.0 0.0 0.00 0.00 0.00 71 1009.4
20210803111517 66 133 0.0 0.0 0.00 0.00 0.00 70 1009.4
20210803110036 67 133 0.0 0.0 0.00 0.00 0.00 69 1009.3
20210803104509 67 133 0.0 0.0 0.00 0.00 0.00 67 1009.3
20210803103004 68 133 0.0 0.0 0.00 0.00 0.00 64 1009.3
20210803101508 68 133 0.0 0.0 0.00 0.00 0.00 65 1009.3
20210803100218 68 133 0.0 0.0 0.00 0.00 0.00 65 1009.3
20210803094704 69 133 0.0 0.0 0.00 0.00 0.00 63 1009.4
20210803093241 69 133 0.0 0.0 0.00 0.00 0.00 60 1009.3
20210803091645 70 133 0.0 0.0 0.00 0.00 0.00 59 1009.3
20210803090132 70 132 0.0 0.0 0.00 0.00 0.00 58 1009.4
20210803084812 68 261 0.0 0.0 0.00 0.00 0.00 62 1009.5
20210803083147 68 261 0.0 0.0 0.00 0.00 0.00 66 1009.6
20210803081700 69 261 0.0 0.0 0.00 0.00 0.00 63 1009.7
20210803080202 69 261 0.0 0.0 0.00 0.00 0.00 63 1009.8
20210803074631 69 261 0.0 0.0 0.00 0.00 0.00 63 1009.8
20210803073155 70 261 0.0 0.0 0.00 0.00 0.00 63 1010.0
20210803071704 70 261 0.0 0.0 0.00 0.00 0.00 62 1010.0
20210803070145 71 261 0.0 0.0 0.00 0.00 0.00 60 1010.1
20210803064611 72 261 0.0 0.0 0.00 0.00 0.00 59 1010.1
20210803063107 72 261 0.0 0.0 0.00 0.00 0.00 57 1010.1
20210803061652 72 261 0.0 0.0 0.00 0.00 0.00 58 1010.1
20210803060051 72 261 0.0 0.0 0.00 0.00 0.00 59 1010.1
20210803054657 72 261 0.0 0.0 0.00 0.00 0.00 58 1010.1
20210803053100 73 261 0.0 0.0 0.00 0.00 0.00 57 1010.3
20210803051600 73 261 0.0 0.0 0.00 0.00 0.00 56 1010.3
20210803050122 73 261 0.0 0.0 0.00 0.00 0.00 57 1010.3
20210803044610 73 261 0.0 0.0 0.00 0.00 0.00 56 1010.3
20210803043229 73 261 0.0 0.0 0.00 0.00 0.00 57 1010.3
20210803041555 73 261 0.0 0.0 0.00 0.00 0.00 56 1010.3
20210803040057 74 261 0.0 0.0 0.00 0.00 0.00 55 1010.2
20210803034707 75 261 0.0 0.0 0.00 0.00 0.00 53 1010.1
20210803033102 76 261 0.0 0.0 0.00 0.00 0.00 53 1009.9
20210803031621 77 261 2.0 0.0 0.00 0.00 0.00 52 1009.8
20210803030138 78 261 4.0 0.0 0.00 0.00 0.00 53 1009.7
20210803024622 80 261 4.0 0.0 0.00 0.00 0.00 51 1009.7
20210803023113 81 262 5.0 0.0 0.00 0.00 0.00 46 1009.5
20210803021547 83 268 5.0 0.0 0.00 0.00 0.00 45 1009.5
20210803020235 86 276 5.0 0.0 0.00 0.00 0.00 45 1009.3
20210803014548 87 288 4.0 0.0 0.00 0.00 0.00 40 1009.2
20210803013103 88 294 5.0 0.0 0.00 0.00 0.00 41 1009.2
20210803011603 88 283 6.0 0.0 0.00 0.00 0.00 41 1009.1
20210803010111 89 273 6.0 0.0 0.00 0.00 0.00 38 1009.1
20210803004559 90 284 8.0 0.0 0.00 0.00 0.00 33 1009.1
20210803003146 90 303 7.0 0.0 0.00 0.00 0.00 31 1009.1
20210803001555 91 294 7.0 0.0 0.00 0.00 0.00 32 1009.2
20210803000056 91 304 8.0 0.0 0.00 0.00 0.00 29 1009.3
20210802234633 91 303 8.0 0.0 0.00 0.00 0.00 28 1009.3
20210802233036 91 268 8.0 0.0 0.00 0.00 0.00 29 1009.4
20210802231614 91 273 8.0 0.0 0.00 0.00 0.00 29 1009.4
20210802230040 91 242 8.0 0.0 0.00 0.00 0.00 28 1009.6
20210802224544 91 245 9.0 0.0 0.00 0.00 0.00 28 1009.6
20210802223030 92 290 9.0 0.0 0.00 0.00 0.00 27 1009.7
20210802221536 93 274 8.0 0.0 0.00 0.00 0.00 25 1009.7
20210802220026 93 265 8.0 0.0 0.00 0.00 0.00 26 1009.9
20210802214612 93 290 8.0 0.0 0.00 0.00 0.00 25 1010.0
20210802213107 92 275 9.0 0.0 0.00 0.00 0.00 24 1010.0
20210802211547 92 261 10.0 0.0 0.00 0.00 0.00 27 1010.1
20210802210048 92 289 9.0 0.0 0.00 0.00 0.00 27 1010.1
20210802204549 92 288 8.0 0.0 0.00 0.00 0.00 28 1010.3
20210802203017 91 272 8.0 0.0 0.00 0.00 0.00 33 1010.5
20210802201514 92 249 8.0 0.0 0.00 0.00 0.00 31 1010.5
20210802200007 92 279 8.0 0.0 0.00 0.00 0.00 34 1010.7
20210802194509 91 250 7.0 0.0 0.00 0.00 0.00 35 1010.9
20210802193007 91 244 7.0 0.0 0.00 0.00 0.00 37 1010.8
20210802191505 92 282 6.0 0.0 0.00 0.00 0.00 35 1010.9
20210802190246 91 304 6.0 0.0 0.00 0.00 0.00 34 1011.0
20210802184706 91 296 6.0 0.0 0.00 0.00 0.00 35 1011.2
20210802183138 89 317 5.0 0.0 0.00 0.00 0.00 38 1011.2
20210802181746 89 300 4.0 0.0 0.00 0.00 0.00 39 1011.4
20210802180104 88 290 1.0 0.0 0.00 0.00 0.00 40 1011.7
20210802174621 86 283 1.0 0.0 0.00 0.00 0.00 41 1011.9
20210802173117 84 273 2.0 0.0 0.00 0.00 0.00 42 1011.9
20210802171611 83 269 0.0 0.0 0.00 0.00 0.00 41 1012.0
20210802170120 82 246 0.0 0.0 0.00 0.00 0.00 42 1012.1
20210802164541 81 225 0.0 0.0 0.00 0.00 0.00 44 1012.2
20210802163109 80 205 0.0 0.0 0.00 0.00 0.00 42 1012.3
20210802161658 79 194 0.0 0.0 0.00 0.00 0.00 46 1012.4
20210802160039 76 194 0.0 0.0 0.00 0.00 0.00 50 1012.6
20210802154544 74 194 0.0 0.0 0.00 0.00 0.00 54 1012.7
20210802153042 72 192 0.0 0.0 0.00 0.00 0.00 59 1012.7
20210802151516 70 192 0.0 0.0 0.00 0.00 0.00 62 1012.7
20210802150015 69 192 0.0 0.0 0.00 0.00 0.00 65 1012.8
20210802144520 68 192 0.0 0.0 0.00 0.00 0.00 66 1012.7